User: anonymous   Login
Location: Vancouver
(49.2500°N, 123.1330°W)
Time: 12:15:11
(UTC-07:00)
Language:

Cosmos 1408 Rocket - Orbit

View from above orbital plane
View from above orbital plane
View from above satellite
View from above satellite

Ground track
Ground track

The orbit data is extracted from the following two-line orbital elements,

1 13553U 82092B   17177.80219351 +.00000065 +00000-0 +48180-5 0  9997
2 13553 082.5685 225.1217 0021835 017.3012 101.1416 14.84124891857372
Epoch (UTC): 26 June 2017 19:15:09
Eccentricity: 0.0021835
inclination: 82.5685°
perigee height: 601 km
apogee height: 631 km
right ascension of ascending node: 225.1217°
argument of perigee: 17.3012°
revolutions per day: 14.84124891
mean anomaly at epoch: 101.1416°
orbit number at epoch: 85737

The dashed part of the orbit path shows where the satellite is in the earth's shadow,  

DLR